Regional Weather Roundup
Issued by NWS

Home | Current Version | Previous Version | Graphics & Text | Print | Product List | Glossary Off
Versions: 1 2 3 4 5 6 7 8 9 10 11 12 13 14 15 16 17 18 19 20 21 22 23 24 25 26 27 28 29 30 31 32 33 34 35 36 37 38 39 40 41 42 43 44 45 46 47 48 49 50

000
ASUS43 KMPX 311710
RWRMN
WEATHER ROUNDUP FOR MINNESOTA
NATIONAL WEATHER SERVICE TWIN CITIES/CHANHASSEN MN
1200 PM CDT MON AUG 31 2015


NOTE: "FAIR" INDICATES FEW OR NO CLOUDS BELOW 12,000 FEET WITH NO
SIGNIFICANT WEATHER AND/OR OBSTRUCTIONS TO VISIBILITY. N/A MEANS
CURRENT SKY AND/OR WEATHER CONDITIONS ARE NOT AVAILABLE.

MNZ060>063-068>070-311800-
   Twin Cities Metro

CITY           SKY/WX    TMP DP  RH WIND       PRES   REMARKS
TWIN CITIES    MOSUNNY   79  69  71 S12       29.93F
ST PAUL        MOSUNNY   78  70  76 S12       29.94F
CRYSTAL        MOSUNNY   80  69  69 S13G20    29.91F
BLAINE         MOSUNNY   81  72  74 S14G21    29.92F
LAKEVILLE      MOSUNNY   75  70  83 S8G17     29.95S
EDEN PRAIRIE   MOSUNNY   79  69  71 S16       29.92F
SOUTH ST PAUL  MOSUNNY   78  70  76 S8        29.94F
LAKE ELMO      CLOUDY    75  70  83 S12G17    29.96F
$$
MNZ001>005-007-008-013>017-022>024-027-028-311800-
   Northwest Minnesota

CITY           SKY/WX    TMP DP  RH WIND       PRES   REMARKS
BEMIDJI        SUNNY     79  60  52 S15G21    29.76F
HALLOCK        PTSUNNY   75  66  73 NW9       29.73R
ROSEAU         PTSUNNY   70  63  78 SW10      29.72R
WARROAD        CLOUDY    70  64  83 SW8       29.72R
THIEF RVR FALL CLOUDY   N/A N/A N/A SW10      29.73R
CROOKSTON      PTSUNNY   72  64  78 W12       29.74R
FOSSTON        SUNNY     79  61  53 SW15G24   29.76R
DETROIT LAKES  SUNNY     79  61  53 SW15      29.79S
MOORHEAD       MOSUNNY   79  63  57 SW13      29.75S
PARK RAPIDS    SUNNY     82  61  48 S13       29.80R
MAHNOMEN       FAIR      76  62  61 SW15G22   29.76S
$$
MNZ006-009>011-018-025>026-311800-
   North Central Minnesota

CITY           SKY/WX    TMP DP  RH WIND       PRES   REMARKS
BAUDETTE       PTSUNNY   77  62  59 SW13G21   29.70F
FLAG ISLAND    CLOUDY    70  63  78 S10       29.67F
INTL FALLS     MOSUNNY   78  61  55 S10G22    29.74F
WASKISH        SUNNY     79  63  57 S6G17     29.73S
BIG FORK       MOSUNNY   79  64  61 S9G16     29.78F
LONGVILLE      SUNNY     75  64  69 S12G20    29.81S
GRAND RAPIDS     N/A     75  63  64 S20G26    29.82F
CRANE LAKE     MOSUNNY   73  63  68 S8        29.81S
ORR            MOSUNNY   75  61  60 S10G16    29.77F
COOK           MOSUNNY   75  61  60 S12G21    29.82F
WALKER         FAIR      78  62  58 S9        29.79R
$$
MNZ012-019>021-037-311800-
   Northeast Minnesota

CITY           SKY/WX    TMP DP  RH WIND       PRES   REMARKS
DULUTH         SUNNY     75  64  68 S15       29.89F
ELY            SUNNY     77  57  50 SW12G17   29.84S
HIBBING        MOSUNNY   77  62  59 S7        29.84F
EVELETH        SUNNY     77  63  61 S10       29.86S
DULUTH HARBOR  SUNNY     79  66  65 S15G21    29.87F
TWO HARBORS    SUNNY     75  68  78 S10       29.87F
SILVER BAY     SUNNY     75  64  69 S12G18    29.87S
GRAND MARAIS     N/A     58  57  97 SW6       29.88F
G MARAIS ARPRT PTSUNNY   66  59  77 S8        29.92S
$$
MNZ029>031-032-039>041-046>048-054>057-064-311800-
   West Central Minnesota

CITY           SKY/WX    TMP DP  RH WIND       PRES   REMARKS
FERGUS FALLS   SUNNY     79  64  61 S14G21    29.78R
WHEATON        SUNNY     79  63  57 S12G17    29.79S
MORRIS         SUNNY     81  66  61 S14G21    29.81R
ALEXANDRIA     SUNNY     77  66  68 S18G26    29.85S
ELBOW LAKE     FAIR      78  65  65 S16G22    29.81R
WADENA         SUNNY     79  61  53 S15       29.81S
GLENWOOD       SUNNY     79  66  65 S22G29    29.84F
APPLETON       SUNNY     82  64  54 S14G21    29.81R
BENSON         SUNNY     79  66  65 SW14G22   29.82F
ORTONVILLE     SUNNY     81  63  54 S8G17     29.79R
MADISON        SUNNY     81  64  57 S14G22    29.82R
WILLMAR        FAIR      79  70  73 S10G21    29.88R
$$
MNZ033>034-036-042>043-049>051-058-059-311800-
   Central Minnesota

CITY           SKY/WX    TMP DP  RH WIND       PRES   REMARKS
ST CLOUD       SUNNY     78  69  73 S20G26    29.88F
SAUK CENTRE    FAIR      76  67  71 S12       29.85F
PAYNESVILLE    SUNNY     76  67  73 SE20G25   29.88S
AITKIN         SUNNY     75  66  73 S13G21    29.84S
PINE RIVER     SUNNY     77  64  65 S13G21    29.86R
BRAINERD       SUNNY     77  64  64 S18G24    29.85R
STAPLES        SUNNY     79  63  57 S13G20    29.83R
LONG PRAIRIE   FAIR      77  64  65 S10       29.85F
LITTLE FALLS   SUNNY     77  63  61 S9G16     29.86S
LITCHFIELD     SUNNY     79  72  78 SE7       29.89S
BUFFALO        MOSUNNY   77  67  71 S12G17    29.92S
MAPLE LAKE     SUNNY     78  71  80 S12G18    29.90F
$$
MNZ037-044-045-052-053-311800-
   East Central Minnesota

CITY           SKY/WX    TMP DP  RH WIND       PRES   REMARKS
PRINCETON      MOSUNNY   79  70  73 S13G21    29.90S
MORA           MOSUNNY   75  64  69 S15       29.91F
CAMBRIDGE      MOSUNNY   81  66  61 S17       29.89S
RUSH CITY      MOSUNNY   77  68  72 S12       29.91F
MOOSE LAKE     SUNNY     73  64  73 S10G20    29.87F
HINCKLEY       PTSUNNY   75  70  83 S12G18    29.91S
CLOQUET        SUNNY     75  63  64 S12G20    29.89S
MCGREGOR       SUNNY     77  64  65 S9        29.87S
$$
MNZ071>073-080-081-089-090-097-098-311800-
   Southwest Minnesota

CITY           SKY/WX    TMP DP  RH WIND       PRES   REMARKS
MONTEVIDEO     SUNNY     81  72  74 SW14G21   29.85S
GRANITE FALLS  SUNNY     79  69  71 S14G21    29.87S
CANBY          SUNNY     80  65  59 S12G23    29.84R
MARSHALL       SUNNY     79  64  61 SW23G32   29.88S
REDWOOD FALLS  SUNNY     79  69  71 S20       29.88F
OLIVIA         SUNNY     73  64  73 S16G22    29.87F
PIPESTONE      SUNNY     77  66  69 SW20G25   29.91S
WINDOM         MOSUNNY   75  66  73 S12G23    29.94S
WORTHINGTON    PTSUNNY   73  66  78 S17G24    29.94F
JACKSON        PTSUNNY   75  70  83 SW14G20   29.97R
TRACY          SUNNY     78  69  73 S17G25    29.89S
SLAYTON        SUNNY     75  69  80 S16G23    29.92F
$$
MNZ065>067-074>077-082>085-091>093-311800-
   South Central Minnesota

CITY           SKY/WX    TMP DP  RH WIND       PRES   REMARKS
MANKATO        MOSUNNY   75  70  83 S12G23    29.94S
NEW ULM        SUNNY     77  70  78 S13       29.92S
ST JAMES       SUNNY     79  70  73 S18       29.94S
FAIRMONT       MOSUNNY   75  66  73 S12       29.95S
GLENCOE        MOSUNNY   78  71  80 S7G18     29.92S
FARIBAULT      MOSUNNY   79  72  78 S14       29.96S
OWATONNA       SUNNY     79  70  73 S10G16    29.96F
WASECA         MOSUNNY   77  68  73 S16       29.97S
ALBERT LEA     MOSUNNY   79  72  78 S12G18    29.97F
$$
MNZ078>079-086>088-094>096-311800-
   Southeast Minnesota

CITY           SKY/WX    TMP DP  RH WIND       PRES   REMARKS
ROCHESTER      MOSUNNY   77  70  79 S15G22    30.00F
RED WING       PTSUNNY   79  70  73 SE6       29.96S
STANTON        MOSUNNY   79  70  73 S9        29.95S
DODGE CENTER   SUNNY     75  70  83 S16       29.99S
WINONA         CLOUDY    73  68  83 E5        30.00S
AUSTIN         SUNNY     79  72  78 S13       29.99S
PRESTON        MOSUNNY   77  69  76 S13G18    30.02F
$$
ABBREVIATIONS USED IN REMARKS
   TC - TEMPERATURES IN CELSIUS
  WCI - WIND CHILL INDEX
   HX - HEAT INDEX
  VSB - VISIBILITY
$$



USA.gov is the U.S. government's official web portal to all federal, state and local government web resources and services.